When you browse on this site, cookies collect data to enhance your experience and personalize the content and advertising you see.
Visit our Privacy Policy to learn more. By continuing to use the site, you agree to this use of cookies and data.
  • In Hungary
  • List of Countries
  • For 7 days
  • Water Temperature
  • Weather Map
  • News
  • Weather Widgets
  • user-avatar
    Login

    Hourly Weather Barddhaman

    Today, 25 August, Sunday

    Time Temperature Precipitation Wind Pressure Humidity
    00:00 +28°C° 0 mm 2 mps 749 mmHg 91%
    01:00 +28°C° 0.5 mm 2 mps 749 mmHg 91%
    02:00 +28°C° 0.5 mm 3 mps 748 mmHg 90%
    03:00 +28°C° 0.5 mm 3 mps 748 mmHg 90%
    04:00 +27°C° 0.7 mm 3 mps 748 mmHg 91%
    05:00 +27°C° 0.7 mm 2 mps 749 mmHg 92%
    06:00 +27°C° 0.7 mm 2 mps 749 mmHg 93%
    07:00 +27°C° 0.6 mm 2 mps 749 mmHg 92%
    08:00 +27°C° 0.6 mm 2 mps 750 mmHg 92%
    09:00 +27°C° 0.6 mm 1 mps 750 mmHg 91%
    10:00 +29°C° 0.2 mm 2 mps 750 mmHg 85%
    11:00 +30°C° 0.2 mm 3 mps 750 mmHg 79%
    12:00 +33°C° 0.2 mm 3 mps 749 mmHg 73%
    13:00 +33°C° 0.5 mm 4 mps 749 mmHg 72%
    14:00 +33°C° 0.5 mm 5 mps 748 mmHg 72%
    15:00 +33°C° 0.5 mm 5 mps 747 mmHg 71%
    16:00 +33°C° 0.1 mm 4 mps 747 mmHg 74%
    17:00 +31°C° 0.1 mm 3 mps 747 mmHg 78%
    18:00 +31°C° 0.1 mm 2 mps 747 mmHg 81%
    19:00 +30°C° 0 mm 2 mps 747 mmHg 83%
    20:00 +30°C° 0 mm 2 mps 748 mmHg 84%
    21:00 +29°C° 0 mm 1 mps 749 mmHg 86%
    22:00 +29°C° 0 mm 2 mps 749 mmHg 87%
    23:00 +29°C° 0 mm 2 mps 749 mmHg 88%

    Tomorrow, 26 August, Monday

    Time Temperature Precipitation Wind Pressure Humidity
    00:00 +29°C° 0 mm 2 mps 749 mmHg 89%
    01:00 +28°C° 0.1 mm 2 mps 749 mmHg 90%
    02:00 +28°C° 0.1 mm 2 mps 748 mmHg 92%
    03:00 +28°C° 0.1 mm 2 mps 748 mmHg 93%
    04:00 +28°C° 0.5 mm 2 mps 748 mmHg 93%
    05:00 +28°C° 0.5 mm 3 mps 748 mmHg 93%
    06:00 +27°C° 0.5 mm 3 mps 749 mmHg 93%
    07:00 +29°C° 0.5 mm 3 mps 749 mmHg 88%
    08:00 +30°C° 0.5 mm 4 mps 749 mmHg 82%
    09:00 +32°C° 0.5 mm 5 mps 749 mmHg 76%
    10:00 +34°C° 0.9 mm 5 mps 749 mmHg 72%
    11:00 +35°C° 0.9 mm 5 mps 749 mmHg 68%
    12:00 +36°C° 0.9 mm 5 mps 748 mmHg 64%
    13:00 +36°C° 0.1 mm 4 mps 748 mmHg 63%
    14:00 +36°C° 0.1 mm 4 mps 747 mmHg 61%
    15:00 +36°C° 0.1 mm 3 mps 746 mmHg 60%
    16:00 +35°C° 0.4 mm 3 mps 746 mmHg 64%
    17:00 +35°C° 0.4 mm 3 mps 746 mmHg 67%
    18:00 +34°C° 0.4 mm 2 mps 746 mmHg 71%
    19:00 +33°C° 0 mm 3 mps 747 mmHg 75%
    20:00 +31°C° 0 mm 3 mps 747 mmHg 78%
    21:00 +30°C° 0 mm 3 mps 748 mmHg 81%
    22:00 +30°C° 0 mm 3 mps 748 mmHg 83%
    23:00 +29°C° 0 mm 2 mps 748 mmHg 85%

    Day after tomorrow, 27 August, Tuesday

    Time Temperature Precipitation Wind Pressure Humidity
    00:00 +29°C° 0 mm 2 mps 748 mmHg 86%
    01:00 +29°C° 0 mm 2 mps 748 mmHg 87%
    02:00 +29°C° 0 mm 1 mps 748 mmHg 88%
    03:00 +28°C° 0 mm 1 mps 748 mmHg 88%
    04:00 +28°C° 0 mm 1 mps 748 mmHg 90%
    05:00 +28°C° 0 mm 2 mps 748 mmHg 91%
    06:00 +28°C° 0 mm 2 mps 748 mmHg 92%
    07:00 +29°C° 0 mm 2 mps 748 mmHg 85%
    08:00 +31°C° 0 mm 2 mps 748 mmHg 79%
    09:00 +32°C° 0 mm 2 mps 749 mmHg 72%
    10:00 +34°C° 0 mm 2 mps 748 mmHg 67%
    11:00 +35°C° 0 mm 2 mps 748 mmHg 62%
    12:00 +36°C° 0 mm 2 mps 748 mmHg 58%
    13:00 +36°C° 0 mm 2 mps 747 mmHg 58%
    14:00 +36°C° 0 mm 2 mps 746 mmHg 59%
    15:00 +36°C° 0 mm 2 mps 746 mmHg 59%
    16:00 +36°C° 0 mm 2 mps 746 mmHg 62%
    17:00 +35°C° 0 mm 2 mps 746 mmHg 65%
    18:00 +35°C° 0 mm 2 mps 746 mmHg 67%
    19:00 +34°C° 0 mm 2 mps 746 mmHg 71%
    20:00 +32°C° 0 mm 2 mps 747 mmHg 74%
    21:00 +31°C° 0 mm 2 mps 748 mmHg 77%
    22:00 +31°C° 0 mm 2 mps 748 mmHg 79%
    23:00 +30°C° 0 mm 2 mps 748 mmHg 82%

    28 August, Wednesday

    Time Temperature Precipitation Wind Pressure Humidity
    00:00 +30°C° 0 mm 1 mps 748 mmHg 84%
    01:00 +30°C° 0 mm 1 mps 748 mmHg 84%
    02:00 +30°C° 0 mm 1 mps 748 mmHg 84%
    03:00 +27°C° 0 mm 0 mps 747 mmHg 84%
    04:00 +27°C° 0 mm 0 mps 747 mmHg 84%
    05:00 +27°C° 0 mm 0 mps 748 mmHg 84%
    06:00 +29°C° 0 mm 1 mps 748 mmHg 84%
    07:00 +31°C° 0 mm 1 mps 748 mmHg 79%
    08:00 +32°C° 0 mm 1 mps 749 mmHg 74%
    09:00 +34°C° 0 mm 2 mps 749 mmHg 69%
    10:00 +35°C° 0 mm 2 mps 749 mmHg 64%
    11:00 +36°C° 0 mm 2 mps 749 mmHg 58%
    12:00 +38°C° 0 mm 3 mps 749 mmHg 53%
    13:00 +38°C° 0 mm 3 mps 748 mmHg 53%
    14:00 +38°C° 0 mm 3 mps 747 mmHg 53%
    15:00 +38°C° 0 mm 3 mps 747 mmHg 53%
    16:00 +37°C° 0 mm 3 mps 747 mmHg 58%
    17:00 +36°C° 0 mm 3 mps 747 mmHg 62%
    18:00 +35°C° 0 mm 2 mps 747 mmHg 67%
    19:00 +34°C° 0 mm 2 mps 747 mmHg 70%
    20:00 +32°C° 0 mm 2 mps 748 mmHg 73%
    21:00 +32°C° 0 mm 2 mps 749 mmHg 76%
    22:00 +31°C° 0.3 mm 2 mps 749 mmHg 78%
    23:00 +31°C° 0.3 mm 1 mps 749 mmHg 80%

    29 August, Thursday

    Time Temperature Precipitation Wind Pressure Humidity
    00:00 +31°C° 0.3 mm 1 mps 749 mmHg 82%
    01:00 +30°C° 2 mm 1 mps 748 mmHg 83%
    02:00 +30°C° 2 mm 1 mps 748 mmHg 84%
    03:00 +30°C° 2 mm 1 mps 748 mmHg 85%
    04:00 +30°C° 0.1 mm 1 mps 748 mmHg 85%
    05:00 +30°C° 0.1 mm 1 mps 748 mmHg 85%
    06:00 +30°C° 0.1 mm 1 mps 749 mmHg 85%
    07:00 +30°C° 0.1 mm 2 mps 749 mmHg 82%
    08:00 +31°C° 0.1 mm 2 mps 749 mmHg 78%
    09:00 +33°C° 0.1 mm 3 mps 750 mmHg 75%
    10:00 +34°C° 0.3 mm 3 mps 749 mmHg 69%
    11:00 +36°C° 0.3 mm 4 mps 749 mmHg 63%
    12:00 +37°C° 0.3 mm 4 mps 749 mmHg 57%
    13:00 +37°C° 0.1 mm 4 mps 748 mmHg 58%
    14:00 +37°C° 0.1 mm 5 mps 747 mmHg 58%
    15:00 +37°C° 0.1 mm 5 mps 746 mmHg 58%
    16:00 +36°C° 1.1 mm 4 mps 746 mmHg 64%
    17:00 +35°C° 1.1 mm 3 mps 746 mmHg 69%
    18:00 +34°C° 1.1 mm 2 mps 746 mmHg 74%
    19:00 +32°C° 0.1 mm 2 mps 747 mmHg 78%
    20:00 +31°C° 0.1 mm 2 mps 747 mmHg 81%
    21:00 +30°C° 0.1 mm 2 mps 748 mmHg 84%
    22:00 +30°C° 0 mm 2 mps 748 mmHg 86%
    23:00 +30°C° 0 mm 2 mps 748 mmHg 87%

    30 August, Friday

    Time Temperature Precipitation Wind Pressure Humidity
    00:00 +29°C° 0 mm 2 mps 748 mmHg 89%
    01:00 +29°C° 0 mm 2 mps 748 mmHg 90%
    02:00 +29°C° 0 mm 2 mps 747 mmHg 91%
    03:00 +28°C° 0 mm 2 mps 747 mmHg 92%
    04:00 +28°C° 0 mm 2 mps 747 mmHg 92%
    05:00 +28°C° 0 mm 2 mps 747 mmHg 93%
    06:00 +28°C° 0 mm 2 mps 747 mmHg 94%
    07:00 +29°C° 0 mm 2 mps 748 mmHg 87%
    08:00 +31°C° 0 mm 3 mps 748 mmHg 80%
    09:00 +33°C° 0 mm 3 mps 748 mmHg 74%
    10:00 +34°C° 0 mm 3 mps 748 mmHg 70%
    11:00 +35°C° 0 mm 3 mps 748 mmHg 66%
    12:00 +36°C° 0 mm 3 mps 748 mmHg 62%
    13:00 +36°C° 0.7 mm 3 mps 747 mmHg 63%
    14:00 +36°C° 0.7 mm 4 mps 746 mmHg 64%
    15:00 +36°C° 0.7 mm 4 mps 745 mmHg 65%
    16:00 +35°C° 0.5 mm 3 mps 745 mmHg 69%
    17:00 +34°C° 0.5 mm 3 mps 745 mmHg 72%
    18:00 +34°C° 0.5 mm 2 mps 745 mmHg 76%
    19:00 +32°C° 0 mm 2 mps 746 mmHg 79%
    20:00 +31°C° 0 mm 2 mps 747 mmHg 82%
    21:00 +30°C° 0 mm 2 mps 747 mmHg 86%
    22:00 +30°C° 0 mm 2 mps 747 mmHg 86%
    23:00 +29°C° 0 mm 2 mps 748 mmHg 87%
    Show more